DateTimeUTC,F1_A11,F1_S11,BsB_S11,BsG_S11,BsR_S11,BbsB_S11,BbsG_S11,BbsR_S11,BaB_A11,BaG_A11,BaR_A11,Tu_S11,T_S11,Uu_S11,U_S11,P_S11,T1_A11
2021-05-04T11:00:00Z,00000200,21000000,,,,,,,-000.10,-000.01,-000.20,17.1,23.9,,00.0,0678.5,31.0
2021-05-04T11:01:00Z,00000200,21000000,,,,,,,-000.05,0000.07,0000.15,17.1,24.0,,00.0,0678.5,31.0
2021-05-04T11:02:00Z,00000200,21000000,,,,,,,-000.17,-000.02,-000.18,17.1,24.0,,00.0,0678.5,31.0
2021-05-04T11:03:00Z,00000200,61000000,,,,,,,0001.33,0000.92,0000.36,17.1,24.0,,00.0,0678.5,31.0
2021-05-04T11:04:00Z,00000200,41000000,0003.32,0002.41,0000.97,0000.57,0000.57,0000.21,0001.25,0001.08,0000.97,17.2,23.8,,00.0,0679.4,31.0
2021-05-04T11:05:00Z,00000200,01000000,0003.11,0002.33,0001.64,0000.63,0000.38,0000.16,0001.07,0001.06,0000.87,17.3,23.8,,00.0,0679.5,31.0
2021-05-04T11:06:00Z,00000200,01000000,0003.60,0002.36,0001.29,0000.42,0000.36,0000.12,0001.25,0001.13,0000.96,17.3,23.8,,00.0,0679.6,31.0
2021-05-04T11:07:00Z,00000200,01000000,0002.77,0002.09,0001.45,0000.21,0000.38,0000.21,0001.25,0001.34,0000.97,17.3,23.8,,00.0,0679.5,31.0
2021-05-04T11:08:00Z,00000200,01000000,0002.75,0002.15,0001.48,0000.49,0000.39,-000.06,0001.31,0001.10,0000.66,17.3,23.8,,00.0,0679.5,31.0
2021-05-04T11:09:00Z,00000200,01000000,0002.81,0002.40,0001.65,-000.00,0000.29,-000.09,0001.25,0001.31,0000.89,17.3,23.8,,00.0,0679.5,31.0
2021-05-04T11:10:00Z,00000200,01000000,0002.99,0002.45,0001.59,0000.60,0000.14,0000.10,0001.37,0000.90,0000.65,17.3,23.8,,00.0,0679.5,31.0
2021-05-04T11:11:00Z,00000200,01000000,0003.44,0002.34,0001.30,0000.30,0000.25,0000.34,0001.22,0001.15,0000.89,17.3,23.8,,00.0,0679.5,31.0
2021-05-04T11:12:00Z,00000200,01000000,0003.15,0002.30,0001.47,0000.73,0000.07,0000.34,0001.89,0001.24,0001.02,17.4,23.8,,00.0,0679.5,31.0
2021-05-04T11:13:00Z,00000200,01000000,0003.23,0002.33,0001.25,0000.58,0000.21,0000.18,0000.84,0001.24,0000.72,17.4,23.8,,00.0,0679.5,31.0
2021-05-04T11:14:00Z,00000200,01000000,0002.68,0002.44,0001.48,0000.53,0000.32,-000.05,0001.27,0001.21,0001.00,17.4,23.8,,00.0,0679.5,31.0
2021-05-04T11:15:00Z,00000200,01000000,0003.00,0002.32,0001.37,0000.43,0000.32,0000.38,0001.40,0001.14,0000.69,17.4,23.8,,00.0,0679.5,31.0
2021-05-04T11:16:00Z,00000200,01000000,0003.53,0002.62,0001.10,0000.28,0000.41,0000.14,0001.58,0001.43,0001.29,17.4,23.8,,00.0,0679.5,31.0
2021-05-04T11:17:00Z,00000200,01000000,0003.14,0002.33,0001.57,0000.22,0000.42,0000.14,0001.29,0000.95,0000.80,17.4,23.9,,00.0,0679.5,31.0
2021-05-04T11:18:00Z,00000200,01000000,0003.17,0002.40,0001.34,0000.59,0000.29,0000.06,0001.09,0001.17,0000.86,17.4,23.8,,00.0,0679.5,31.0
2021-05-04T11:19:00Z,00000200,01000000,0002.84,0002.16,0001.54,0000.34,0000.42,0000.34,0001.31,0001.24,0000.66,17.4,23.9,,00.0,0679.5,31.0
2021-05-04T11:20:00Z,00000200,01000000,0003.14,0002.60,0001.47,0000.61,0000.25,0000.22,0001.23,0000.71,0000.98,17.5,23.9,,00.0,0679.5,31.0
2021-05-04T11:21:00Z,00000200,01000000,0004.10,0002.63,0001.28,0000.27,0000.05,0000.19,0001.08,0001.44,0000.53,17.5,23.9,,00.0,0679.5,31.0
2021-05-04T11:22:00Z,00000200,01000000,0002.77,0002.36,0001.40,0000.94,0000.30,0000.10,0001.38,0001.09,0000.82,17.5,23.9,,00.0,0679.5,31.0
2021-05-04T11:23:00Z,00000200,01000000,0002.12,0002.45,0001.56,-000.35,0000.29,0000.36,0001.13,0001.19,0001.12,17.5,23.9,,00.0,0679.5,31.0
2021-05-04T11:24:00Z,00000200,01000000,0003.21,0002.57,0001.46,0000.74,0000.19,0000.29,0001.63,0001.26,0000.71,17.5,23.9,,00.0,0679.5,31.0
2021-05-04T11:25:00Z,00000200,01000000,0003.16,0002.34,0001.40,0000.47,0000.48,0000.34,0001.30,0001.08,0001.12,17.5,23.9,,00.0,0679.5,31.0
2021-05-04T11:26:00Z,00000200,01000000,0002.58,0002.38,0001.43,0000.51,0000.42,0000.09,0001.45,0001.27,0000.79,17.5,23.9,,00.0,0679.5,31.0
2021-05-04T11:27:00Z,00000200,01000000,0002.71,0002.26,0001.50,0000.79,0000.31,0000.15,0001.06,0001.22,0000.81,17.5,23.9,,00.0,0679.5,31.0
2021-05-04T11:28:00Z,00000200,01000000,0003.44,0002.82,0001.39,0000.63,0000.50,0000.23,0001.31,0000.87,0000.98,17.5,24.0,,00.0,0679.5,31.0
2021-05-04T11:29:00Z,00000200,01000000,0002.16,0002.52,0001.70,0000.36,0000.54,0000.26,0001.12,0001.53,0000.66,17.5,23.9,,00.0,0679.5,31.0
2021-05-04T11:30:00Z,00000200,01000000,0003.55,0002.44,0001.46,0000.23,0000.14,0000.10,0001.47,0001.04,0000.84,17.6,23.9,,00.0,0679.5,31.1
2021-05-04T11:31:00Z,00000200,01000000,0003.20,0002.46,0001.69,0000.40,0000.51,0000.22,0001.41,0001.08,0001.16,17.6,24.0,,00.0,0679.5,31.0
2021-05-04T11:32:00Z,00000200,01000000,0003.53,0002.43,0001.76,0000.63,0000.23,0000.32,0001.14,0001.26,0000.63,17.6,24.0,,00.0,0679.6,31.0
2021-05-04T11:33:00Z,00000200,01000000,0003.55,0002.83,0001.28,0000.88,0000.52,0000.25,0001.37,0001.22,0000.92,17.6,24.0,,00.0,0679.6,31.0
2021-05-04T11:34:00Z,00000200,01000000,0003.41,0002.78,0001.47,0000.61,0000.53,0000.11,0001.30,0001.30,0000.88,17.6,24.0,,00.0,0679.6,31.0
2021-05-04T11:35:00Z,00000200,01000000,0003.66,0002.69,0001.30,0000.67,0000.35,0000.26,0002.11,0001.02,0001.16,17.6,24.0,,00.0,0679.5,31.0
2021-05-04T11:36:00Z,00000200,01000000,0003.19,0002.48,0001.48,0000.89,0000.61,0000.29,0000.91,0001.47,0000.74,17.6,24.0,,00.0,0679.5,31.0
2021-05-04T11:37:00Z,00000200,01000000,0003.29,0002.59,0001.55,0000.79,0000.41,0000.35,0001.61,0001.47,0000.64,17.6,24.0,,00.0,0679.6,31.0
2021-05-04T11:38:00Z,00000200,01000000,0003.37,0002.45,0001.58,0000.63,0000.31,0000.15,0001.31,0000.95,0001.27,17.6,24.0,,00.0,0679.6,31.0
2021-05-04T11:39:00Z,00000200,01000000,0003.74,0002.50,0001.57,0000.53,0000.14,0000.36,0000.84,0001.27,0000.95,17.7,24.0,,00.0,0679.5,31.0
2021-05-04T11:40:00Z,00000200,01000000,0004.18,0002.85,0001.64,0000.46,0000.33,0000.47,0001.60,0001.33,0000.52,17.7,24.0,,00.0,0679.5,31.1
2021-05-04T11:41:00Z,00000200,01000000,0002.71,0002.61,0001.23,0000.71,0000.34,0000.02,0001.50,0000.87,0001.02,17.7,24.0,,00.0,0679.5,31.1
2021-05-04T11:42:00Z,00000200,01000000,0003.88,0002.78,0001.72,0000.43,0000.42,0000.22,0001.39,0001.29,0000.95,17.7,24.1,,00.0,0679.5,31.1
2021-05-04T11:43:00Z,00000200,01000000,0003.07,0002.83,0001.68,0000.88,0000.41,0000.42,0001.43,0001.30,0001.21,17.7,24.1,,00.0,0679.5,31.0
2021-05-04T11:44:00Z,00000200,01000000,0003.56,0002.72,0001.85,0000.80,0000.40,0000.07,0001.38,0001.13,0000.76,17.7,24.1,,00.0,0679.5,31.0
2021-05-04T11:45:00Z,00000200,01000000,0002.82,0002.54,0001.45,0000.58,0000.53,0000.16,0001.15,0001.09,0000.95,17.8,24.0,,00.0,0679.6,31.1
2021-05-04T11:46:00Z,00000200,01000000,0003.71,0002.63,0001.56,0000.83,0000.56,0000.30,0001.65,0001.36,0000.87,17.7,24.1,,00.0,0679.6,31.0
2021-05-04T11:47:00Z,00000200,01000000,0003.73,0002.73,0001.93,0000.82,0000.46,0000.37,0001.41,0001.11,0000.60,17.8,24.1,,00.0,0679.5,31.1
2021-05-04T11:48:00Z,00000200,01000000,0003.50,0002.92,0001.61,0000.58,0000.29,0000.16,0000.96,0001.25,0000.97,17.8,24.1,,00.0,0679.5,31.0
2021-05-04T11:49:00Z,00000200,01000000,0003.54,0002.29,0001.48,0000.20,0000.49,0000.23,0001.20,0001.32,0000.54,17.8,24.1,,00.0,0679.5,31.1
2021-05-04T11:50:00Z,00000200,01000000,0004.06,0002.73,0001.77,0001.12,0000.49,-000.02,0001.41,0001.00,0000.97,17.8,24.1,,00.0,0679.5,31.1
2021-05-04T11:51:00Z,00000200,01000000,0002.88,0002.75,0001.69,0000.57,0000.41,0000.23,0001.57,0001.69,0001.21,17.8,24.1,,00.0,0679.5,31.1
2021-05-04T11:52:00Z,00000200,01000000,0003.18,0002.65,0001.53,0001.03,0000.20,0000.34,0001.33,0000.95,0000.57,17.8,24.1,,00.0,0679.5,31.1
2021-05-04T11:53:00Z,00000200,01000000,0003.27,0002.55,0001.60,0000.39,0000.64,0000.21,0001.36,0001.24,0001.09,17.9,24.1,,00.0,0679.5,31.1
2021-05-04T11:54:00Z,00000200,01000000,0002.86,0002.80,0001.82,0000.53,0000.46,0000.09,0001.36,0001.21,0001.23,17.9,24.1,,00.0,0679.5,31.1
2021-05-04T11:55:00Z,00000200,01000000,0003.39,0002.49,0001.67,-000.18,0000.51,0000.15,0001.18,0000.98,0000.57,17.9,24.2,,00.0,0679.5,31.1
2021-05-04T11:56:00Z,00000200,01000000,0003.09,0002.54,0001.67,0000.37,0000.64,0000.41,0001.23,0001.14,0000.83,17.9,24.2,,00.0,0679.5,31.1
2021-05-04T11:57:00Z,00000200,41000000,,,,,,,0000.53,0000.14,0000.28,17.9,24.2,,00.0,0679.6,31.1
2021-05-04T11:58:00Z,00000200,61000000,,,,,,,-000.47,0000.27,-000.26,17.7,24.3,,00.0,0678.5,31.1
2021-05-04T11:59:00Z,00000200,21000000,,,,,,,0000.27,-000.37,0000.15,17.7,24.4,,00.0,0678.5,31.1
